Regional Weather Roundup
Issued by NWS

Home | Current Version | Previous Version | Text Only | Print | Product List | Glossary On
Versions: 1 2 3 4 5 6 7 8 9 10 11 12 13 14 15 16 17 18 19 20 21 22 23 24 25 26 27 28 29 30 31 32 33 34 35 36 37 38 39 40 41 42 43 44 45 46 47 48 49 50
000
ASUS43 KLSX 111707
RWRMO

WEATHER SUMMARY FOR MISSOURI
NATIONAL WEATHER SERVICE SPRINGFIELD MO
1200 PM CDT FRI JUL 11 2014

NOTE: "FAIR" INDICATES FEW OR NO CLOUDS BELOW 12,000 FEET WITH NO
       SIGNIFICANT WEATHER AND/OR OBSTRUCTIONS TO VISIBILITY.
       CURRENT SKY AND/OR WEATHER CONDITIONS ARE NOT AVAILABLE FOR
       CHILLICOTHE AND FARMINGTON.

MOZ001>031-035>038-043-044-053-054-111800-
...NORTHERN AND WESTERN MISSOURI...

CITY           SKY/WX    TMP DP  RH WIND       PRES   REMARKS
KANSAS CTY INT PTSUNNY   80  70  71 SW9       30.06S
KANSAS C DTWN  PTSUNNY   83  70  64 S12       30.05F
LEE`S SUMMIT   PTSUNNY   81  70  69 S9        30.07S
ST JOSEPH      MOSUNNY   82  72  71 S13       30.03F
CHILLICOTHE      N/A     81  69  67 S9        30.07F
KIRKSVILLE     CLOUDY    79  69  71 SE13      30.10S

$$
MOZ066>068-077>081-088>096-101>105-111800-
...SOUTHWEST MISSOURI...

CITY           SKY/WX    TMP DP  RH WIND       PRES   REMARKS
SPRINGFIELD    SUNNY     84  71  65 S12       30.14S
JOPLIN         SUNNY     87  69  54 SW16      30.11F HX  91

$$
MOZ032>034-039>042-045>050-055>058-069>072-111800-
...CENTRAL MISSOURI...

CITY           SKY/WX    TMP DP  RH WIND       PRES   REMARKS
COLUMBIA       SUNNY     83  70  64 S10       30.12F
JEFFERSON CITY MOSUNNY   83  69  62 SE9       30.11F
ROLLA          SUNNY     83  68  60 S12       30.14F
SEDALIA        SUNNY     85  73  67 S12       30.10F HX  91
WHITEMAN AFB   MOSUNNY   84  68  57 S13       30.07F
OSAGE BEACH    MOSUNNY   82  72  69 SE9       30.12F

$$
MOZ051-052-059>065-111800-
...EAST CENTRAL MISSOURI...

CITY           SKY/WX    TMP DP  RH WIND       PRES   REMARKS
ST LOUIS INTL  MOSUNNY   85  66  53 S9        30.16F
SPIRIT OF STL  MOSUNNY   84  66  54 VRB5      30.14F
ST CHARLES     SUNNY     83  65  54 SE9       30.14F

$$
MOZ072>076-082>087-097>100-106>115-111800-
...SOUTH CENTRAL AND SOUTHEAST MISSOURI...

CITY           SKY/WX    TMP DP  RH WIND       PRES   REMARKS
CAPE GIRARDEAU SUNNY     85  66  53 SW3       30.18S
FARMINGTON     SUNNY     82  66  57 S7        30.21F
POPLAR BLUFF   CLOUDY    83  67  58 VRB3      30.17S
WEST PLAINS    PTSUNNY   79  68  69 S7        30.20F

$$



USA.gov is the U.S. government's official web portal to all federal, state and local government web resources and services.